Location: Cactus School
(34.5700°N, 118.0931°W)
Time: 23:39:35
(UTC-07:00)

Transit 4A - Pass Details

Date: 16 April 2024
Orbit: 871 x 971 km, 66.8° (Epoch: 17 May)

Event Time Altitude Azimuth Distance (km) Brightness Sun altitude
Rises 23:22:50 0° 335° (NNW) 3,464 11.8 -40.1°
Reaches altitude 10° 23:25:20 10° 338° (NNW) 2,525 10.8 -40.3°
Enters shadow 23:27:34 24° 342° (NNW) 1,719 9.7 -40.5°
Maximum altitude 23:31:09 72° 62° (ENE) 921 - -40.9°
Drops below altitude 10° 23:37:02 10° 147° (SSE) 2,550 - -41.4°
Sets 23:39:33 0° 150° (SSE) 3,500 - -41.6°
